Change the Weather History Date:

Thursday, November 8, 2012

  Actual Average Record
Temperature  
Mean Temperature 34 °F -  
Max Temperature 37 °F 51 °F 72 °F (1975)
Min Temperature 30 °F 33 °F 16 °F (1960)
Degree Days  
Heating Degree Days 32    
Moisture  
Dew Point 32 °F    
Average Humidity 87    
Maximum Humidity 93    
Minimum Humidity 75    
Precipitation  
Precipitation 0.20 in - - ()
Sea Level Pressure  
Sea Level Pressure 29.71 in    
Wind  
Wind Speed 16 mph (NNW)    
Max Wind Speed 21 mph    
Max Gust Speed 33 mph    
Visibility 6 miles    
Events Rain , Snow    
Averages and records for this station are not official NWS values.
T = Trace of Precipitation, MM = Missing Value Source: NWS Daily Summary

Daily Weather History Graph

Daily Weather History Graph

Search for Another Location

Airport or City:

Trip Planner

Search our weather history database for the weather conditions in past years. The results will help you decide how hot, cold, wet, or windy it might be!

Date:

Astronomy

Nov. 08, 2012 Rise Set
Actual Time 6:28 AM EST 4:29 PM EST
Civil Twilight 5:58 AM EST 4:59 PM EST
Nautical Twilight 5:24 AM EST 5:32 PM EST
Astronomical Twilight 4:51 AM EST 6:05 PM EST
Moon 12:12 AM EST (11/8) 1:15 PM EST (11/8)
Length of Visible Light 11h 00m
Length of Day
10h 01m
Waning Crescent, 33% of the Moon is Illuminated
Nov 8
Waning Crescent
Nov 13
New
Nov 20
First Quarter
Nov 28
Full
Dec 6
Last Quarter

Hourly Weather History & Observations

Time (EST) Temp. Windchill Dew Point Humidity Pressure Visibility Wind Dir Wind Speed Gust Speed Precip Events Conditions
12:12 AM 30.2 °F 18.1 °F 28.4 °F 93% 29.76 in 2.0 mi North 18.4 mph 27.6 mph 0.02 in Snow Light Snow
12:19 AM 30.2 °F 17.8 °F 28.4 °F 93% 29.75 in 2.5 mi North 19.6 mph 31.1 mph 0.03 in Snow Light Snow
12:48 AM 32.0 °F 21.2 °F 28.4 °F 87% 29.75 in 3.0 mi North 16.1 mph 24.2 mph 0.06 in Snow Light Snow
12:56 AM 32.0 °F 22.1 °F 28.0 °F 85% 29.79 in 4.0 mi North 13.8 mph 24.2 mph 0.06 in Snow Light Snow
1:56 AM 32.0 °F 20.5 °F 28.4 °F 87% 29.73 in 10.0 mi North 18.4 mph 27.6 mph N/A   Overcast
2:12 AM 32.0 °F 20.8 °F 28.4 °F 87% 29.72 in 8.0 mi North 17.3 mph 25.3 mph 0.02 in   Overcast
2:56 AM 33.1 °F 22.6 °F 28.0 °F 82% 29.76 in 10.0 mi North 16.1 mph 33.4 mph 0.02 in Rain Light Rain
3:56 AM 33.1 °F 21.9 °F 28.9 °F 85% 29.75 in 8.0 mi North 18.4 mph 26.5 mph 0.00 in   Overcast
4:56 AM 34.0 °F 23.8 °F 28.9 °F 82% 29.73 in 10.0 mi North 16.1 mph 29.9 mph 0.00 in   Overcast
5:04 AM 33.8 °F 23.5 °F 28.4 °F 81% 29.68 in 10.0 mi North 16.1 mph 29.9 mph N/A   Overcast
5:56 AM 34.0 °F 23.8 °F 30.0 °F 85% 29.72 in 10.0 mi North 16.1 mph 29.9 mph N/A   Overcast
6:56 AM 35.1 °F 24.8 °F 30.0 °F 82% 29.71 in 10.0 mi North 17.3 mph 32.2 mph N/A   Overcast
7:56 AM 35.1 °F 23.8 °F 30.9 °F 85% 29.71 in 6.0 mi North 20.7 mph 28.8 mph 0.00 in Rain Light Rain
8:56 AM 35.1 °F 25.5 °F 32.0 °F 89% 29.72 in 10.0 mi North 15.0 mph 25.3 mph 0.02 in Rain Light Rain
9:56 AM 35.1 °F 25.2 °F 32.0 °F 89% 29.70 in 4.0 mi North 16.1 mph 28.8 mph 0.08 in Rain Rain
10:56 AM 36.0 °F 26.7 °F 33.1 °F 89% 29.69 in 3.0 mi North 15.0 mph 24.2 mph 0.00 in   Overcast
11:03 AM 35.6 °F 26.2 °F 33.8 °F 93% 29.64 in 3.0 mi North 15.0 mph 24.2 mph N/A   Overcast
11:16 AM 35.6 °F 25.5 °F 33.8 °F 93% 29.64 in 4.0 mi North 17.3 mph 27.6 mph N/A Rain Light Rain
11:56 AM 37.0 °F 28.1 °F 34.0 °F 89% 29.68 in 6.0 mi North 15.0 mph 29.9 mph 0.00 in   Mostly Cloudy
12:03 PM 37.4 °F 27.8 °F 33.8 °F 87% 29.63 in 6.0 mi North 17.3 mph 28.8 mph N/A   Overcast
12:54 PM 37.4 °F 28.9 °F 33.8 °F 87% 29.63 in 3.0 mi North 13.8 mph 28.8 mph 0.00 in Rain Light Rain
12:56 PM 37.0 °F 27.7 °F 34.0 °F 89% 29.68 in 3.0 mi North 16.1 mph 28.8 mph 0.00 in Rain Light Rain
1:56 PM 37.9 °F 29.6 °F 35.1 °F 89% 29.68 in 3.0 mi North 13.8 mph - 0.01 in Rain Light Rain
2:03 PM 37.4 °F 27.8 °F 35.6 °F 93% 29.64 in 3.0 mi North 17.3 mph 24.2 mph 0.00 in Rain Light Rain
2:10 PM 37.4 °F 29.8 °F 35.6 °F 93% 29.64 in 2.5 mi North 11.5 mph 24.2 mph 0.00 in Rain Light Rain
2:17 PM 37.4 °F 28.9 °F 35.6 °F 93% 29.64 in 4.0 mi North 13.8 mph 25.3 mph 0.00 in Rain Light Rain
2:56 PM 37.9 °F 29.6 °F 36.0 °F 93% 29.70 in 4.0 mi North 13.8 mph 23.0 mph 0.00 in Rain Light Rain
3:11 PM 37.4 °F 28.5 °F 35.6 °F 93% 29.66 in 4.0 mi North 15.0 mph 28.8 mph 0.00 in Rain Light Rain
3:56 PM 37.9 °F 29.2 °F 36.0 °F 93% 29.71 in 7.0 mi NNW 15.0 mph - 0.01 in Rain Light Rain
4:03 PM 37.4 °F 28.2 °F 35.6 °F 93% 29.67 in 10.0 mi NNW 16.1 mph 21.9 mph 0.00 in   Overcast
4:56 PM 37.0 °F 28.1 °F 34.0 °F 89% 29.74 in 5.0 mi NNW 15.0 mph - 0.00 in   Overcast
5:03 PM 37.4 °F 29.3 °F 33.8 °F 87% 29.70 in 10.0 mi NNW 12.7 mph 21.9 mph N/A   Overcast
5:13 PM 37.4 °F 29.3 °F 33.8 °F 87% 29.70 in 5.0 mi NNW 12.7 mph - N/A   Overcast
5:56 PM 37.0 °F 28.9 °F 34.0 °F 89% 29.76 in 5.0 mi NNW 12.7 mph 23.0 mph 0.00 in Rain Light Rain
6:03 PM 37.4 °F 28.5 °F 33.8 °F 87% 29.72 in 4.0 mi NNW 15.0 mph 21.9 mph 0.00 in Rain Light Rain
6:56 PM 36.0 °F 27.5 °F 34.0 °F 93% 29.77 in 6.0 mi NNW 12.7 mph 19.6 mph 0.00 in Rain Light Rain
7:56 PM 37.0 °F 29.3 °F 33.1 °F 86% 29.78 in 10.0 mi NW 11.5 mph 20.7 mph 0.00 in   Overcast
8:56 PM 37.0 °F 28.9 °F 32.0 °F 82% 29.79 in 10.0 mi NW 12.7 mph - N/A   Overcast
9:56 PM 37.9 °F 30.9 °F 32.0 °F 79% 29.79 in 10.0 mi NW 10.4 mph 20.7 mph N/A   Overcast
10:56 PM 37.9 °F 30.5 °F 30.9 °F 76% 29.80 in 10.0 mi NW 11.5 mph 20.7 mph N/A   Overcast
11:40 PM 37.4 °F 29.3 °F 30.2 °F 75% 29.75 in 10.0 mi NW 12.7 mph - N/A   Overcast
11:56 PM 37.9 °F 30.0 °F 30.9 °F 76% 29.80 in 10.0 mi NW 12.7 mph 21.9 mph N/A   Overcast